[[{"header":{"parameterUnit":"m.s-1","parameterCategory":1,"la1":30.2991,"la2":30.254,"lo1":-89.0895,"lo2":-89.0444,"dy":0.0017,"dx":0.0017,"nx":28,"ny":28,"refTime":"2024-05-23T21:00:00:Z","depth":0,"parameterNumber":2,"parameterNumberName":"U-component_of_WINDS"},"data":[0,0,0,0,0,0,0,0,0,0,0,0,0,0,0,0,0,0,0,0,0,0,0,0,0,0,0,0,0,0,0,0,0,0,0,0,0,0,0,0,0,0,0,0,0,0,0,0,0,0,0,0,0,0,0,0,0,0,-0.9819,-0.9819,0,-0.9833,-0.9833,-0.9833,-0.9818,-0.9817,-0.9817,-0.9816,-0.9832,-0.9833,-0.9834,0,0,0,0,0,0,0,0,0,0,0,0,0,-0.9782,-0.9783,-0.9819,-0.9819,-0.9819,-0.9833,-0.9833,-0.9833,-0.9818,-0.9817,-0.9817,-0.9816,-0.9832,-0.9833,-0.9834,0,0,0,0,0,0,0,0,0,0,0,0,0,-0.9797,-0.9783,-0.9819,-0.9813,-0.9813,-0.9833,-0.9833,-0.9833,-0.9818,-0.9817,-0.9816,-0.9816,-0.9832,-0.9833,-0.9835,-0.9861,0,0,-0.9839,-0.984,0,0,0,0,0,0,0,0,-0.9796,-0.9799,-0.9814,-0.9814,-0.9813,-0.9823,-0.9826,-0.9843,-0.9818,-0.9816,-0.9816,-0.9815,-0.983,-0.9832,-0.9836,-0.9862,-0.9863,-0.9839,-0.984,-0.9841,-0.9841,0,0,0,0,0,0,0,-0.9795,-0.9798,-0.9824,-0.9814,-0.9814,-0.9811,-0.9812,-0.9829,-0.9828,-0.9816,-0.9815,-0.9817,-0.983,-0.9835,-0.9837,-0.9863,-0.9839,-0.9841,-0.9841,-0.9842,-0.9912,-0.9913,0,0,0,0,0,0,-0.9795,-0.9797,-0.9824,-0.9825,-0.9802,-0.9812,-0.9814,-0.9821,-0.9828,-0.9828,-0.9818,-0.9816,-0.9833,-0.9835,-0.9837,-0.9869,-0.9841,-0.9842,-0.9843,-0.9911,-0.9913,-0.9914,0,0,0,0,0,0,-0.9794,-0.9797,-0.9823,-0.9811,-0.9814,-0.9814,-0.9822,-0.9821,-0.9826,-0.9829,-0.9829,-0.9823,-0.9832,-0.9835,-0.9855,-0.987,-0.9843,-0.9844,-0.991,-0.9912,-0.9913,-0.9933,0,0,0,0,0,0,-0.9793,-0.9797,-0.9806,-0.9811,-0.9815,-0.9841,-0.9823,-0.9822,-0.9829,-0.9827,-0.9834,-0.9834,-0.9832,-0.9853,-0.9857,-0.9871,-0.9845,-0.9909,-0.9911,-0.9913,-0.9932,-0.9935,-0.9939,0,0,0,0,0,-0.9792,-0.9812,-0.9807,-0.981,-0.9826,-0.9842,-0.9844,-0.984,-0.983,-0.984,-0.9842,-0.9834,-0.9867,-0.9856,-0.9859,-0.9874,-0.9908,-0.991,-0.9913,-0.993,-0.9935,-0.9939,0,0,0,0,0,0,-0.981,-0.9812,-0.9807,-0.9829,-0.9835,-0.9839,-0.9852,-0.9845,-0.9855,-0.9853,-0.9849,-0.985,-0.9872,-0.9875,-0.9862,-0.9901,-0.9886,-0.9889,-0.9898,-0.9903,-0.9906,-0.9905,-0.9847,0,0,0,0,0,-0.9816,-0.9827,-0.983,-0.9849,-0.9852,-0.9852,-0.9858,-0.9855,-0.9861,-0.9864,-0.9867,-0.9874,-0.9887,-0.9895,-0.9906,-0.9932,-0.9934,-0.9944,-0.9948,-0.9951,-0.9954,-0.9968,-0.9973,-0.9921,-0.9921,-0.9921,0,0,-0.983,-0.9833,-0.984,-0.9853,-0.9857,-0.987,-0.9854,-0.9868,-0.9878,-0.9866,-0.9886,-0.9888,-0.9896,-0.992,-0.993,-0.9923,-0.9968,-0.9954,-0.9956,-0.9957,-0.9971,-0.9976,-0.9981,-0.9922,-0.9922,-0.9922,0,0,-0.9861,-0.9864,-0.9881,-0.9886,-0.9892,-0.9892,-0.9896,-0.9901,-0.9902,-0.9921,-0.9913,-0.9925,-0.9946,-0.9952,-0.9958,-0.9993,-0.9986,-0.9996,-1.0016,-1.003,-1.0034,-1.0038,-1.0051,-1.0055,-0.9999,-0.9999,-0.9999,0,-0.9878,-0.9896,-0.9891,-0.9906,-0.9912,-0.9901,-0.9919,-0.9924,-0.9934,-0.9939,-0.9931,-0.9957,-0.9962,-0.9987,-0.9995,-1.0,-1.0006,-0.9996,-1.0034,-1.0037,-1.0041,-1.0053,-1.0058,-1.0001,-1.0,-1.0,-1.0,0,-0.9916,-0.9929,-0.9942,-0.9951,-0.9959,-0.9975,-0.9974,-0.9982,-0.9978,-0.9979,-0.9999,-1.0004,-1.0017,-1.0023,-1.0019,-1.0048,-1.0043,-1.0034,-1.0019,-1.0047,-1.0059,-1.0063,-1.0002,-1.0002,-1.0001,-1.0001,0,0,-0.9959,-0.9966,-0.9971,-0.9975,-0.9982,-0.9992,-1.0009,-1.002,-1.0028,-1.0036,-1.005,-1.0068,-1.006,-1.0067,-1.0064,-1.0077,-1.0105,-1.0066,-1.0067,-1.0074,-1.0137,-1.0144,-1.0149,-1.01,-1.0101,-1.0102,-1.0137,0,-0.9991,-1.0018,-1.0015,-1.0041,-1.0054,-1.0044,-1.0058,-1.0065,-1.0066,-1.0077,-1.0079,-1.0092,-1.008,-1.0084,-1.0096,-1.0099,-1.0117,-1.0096,-1.0114,-1.0115,-1.0113,-1.0155,-1.0162,-1.0195,-1.0141,-1.0142,-1.0142,0,-1.0032,-1.0041,-1.0069,-1.0074,-1.0079,-1.0092,-1.0102,-1.0113,-1.012,-1.012,-1.0128,-1.0123,-1.014,-1.0125,-1.0149,-1.0135,-1.0142,-1.0145,-1.0146,-1.0148,-1.013,-1.0159,-1.0205,-1.021,-1.0149,-1.0149,-1.0148,0,-1.0062,-1.0081,-1.0099,-1.0104,-1.011,-1.0119,-1.0123,-1.0129,-1.0136,-1.0146,-1.0151,-1.0163,-1.0169,-1.0179,-1.0178,-1.0167,-1.0203,-1.0187,-1.0204,-1.0204,-1.0213,-1.0212,-1.0261,-1.0217,-1.0217,-1.0216,-1.0216,0,-1.0099,-1.0116,-1.0113,-1.0125,-1.0144,-1.014,-1.016,-1.0162,-1.0168,-1.0181,-1.0173,-1.0186,-1.0183,-1.0196,-1.0195,-1.0216,-1.0219,-1.022,-1.022,-1.0221,-1.0221,-1.0226,-1.0224,-1.0218,-1.0217,-1.0217,-1.0217,0,-1.0135,-1.0134,-1.0154,-1.0158,-1.016,-1.0174,-1.0178,-1.019,-1.019,-1.0207,-1.021,-1.0211,-1.0226,-1.0226,-1.0242,-1.0242,-1.0268,-1.0264,-1.0265,-1.0264,-1.0282,-1.028,-1.0336,-1.0344,-1.0293,-1.0294,-1.0294,0,-1.0159,-1.0172,-1.0178,-1.0185,-1.0189,-1.0201,-1.0209,-1.0205,-1.0214,-1.0223,-1.0234,-1.0247,-1.0258,-1.0282,-1.0285,-1.0298,-1.0296,-1.0314,-1.0298,-1.0299,-1.0297,-1.0296,-1.0298,-1.0318,-1.0318,-1.0319,-1.0319,0,-1.0202,-1.02,-1.0211,-1.0221,-1.023,-1.0238,-1.0246,-1.0253,-1.025,-1.026,-1.0274,-1.0283,-1.03,-1.0314,-1.0326,-1.0331,-1.0325,-1.0324,-1.0329,-1.0331,-1.0331,-1.0332,-1.0274,-1.0323,-1.0323,-1.0322,-1.0322,-1.0322,-1.0233,-1.0244,-1.025,-1.0262,-1.0267,-1.0275,-1.0286,-1.0288,-1.0299,-1.0312,-1.031,-1.0326,-1.0334,-1.035,-1.0355,-1.0369,-1.0362,-1.0369,-1.0371,-1.0373,-1.0375,-1.0328,-1.0371,-1.0371,-1.0371,-1.0371,-1.0371,0,-1.0276,-1.0279,-1.029,-1.0301,-1.031,-1.0303,-1.0311,-1.032,-1.0334,-1.0342,-1.0352,-1.0369,-1.0383,-1.0387,-1.04,-1.041,-1.0408,-1.0414,-1.0414,-1.0415,-1.038,-1.0374,-1.0416,-1.0416,-1.0416,-1.0416,-1.0416,-1.0416,-1.0299,-1.0318,-1.0318,-1.034,-1.0343,-1.0358,-1.0364,-1.0371,-1.0376,-1.0395,-1.0406,-1.0408,-1.0415,-1.0429,-1.0441,-1.0442,-1.0448,-1.0455,-1.0455,-1.0422,-1.0417,-1.0413,-1.0408,-1.0456,-1.0456,-1.0489,-1.049,-1.049]},{"header":{"parameterUnit":"m.s-1","parameterCategory":1,"la1":30.2991,"la2":30.254,"lo1":-89.0895,"lo2":-89.0444,"dy":0.0017,"dx":0.0017,"nx":28,"ny":28,"refTime":"2024-05-23T21:00:00:Z","depth":0,"parameterNumber":3,"parameterNumberName":"V-component_of_WINDS"},"data":[0,0,0,0,0,0,0,0,0,0,0,0,0,0,0,0,0,0,0,0,0,0,0,0,0,0,0,0,0,0,0,0,0,0,0,0,0,0,0,0,0,0,0,0,0,0,0,0,0,0,0,0,0,0,0,0,0,0,3.7023,3.7023,0,3.7055,3.7055,3.7055,3.6992,3.699,3.6988,3.6986,3.7016,3.7019,3.7021,0,0,0,0,0,0,0,0,0,0,0,0,0,3.6904,3.6907,3.7023,3.7023,3.7024,3.7055,3.7055,3.7056,3.6992,3.6989,3.6987,3.6985,3.7015,3.7018,3.7022,0,0,0,0,0,0,0,0,0,0,0,0,0,3.6948,3.6908,3.7023,3.6996,3.6994,3.7055,3.7055,3.7056,3.6993,3.6989,3.6986,3.6983,3.7014,3.7018,3.7022,3.711,0,0,3.7035,3.7036,0,0,0,0,0,0,0,0,3.6946,3.6952,3.6999,3.6998,3.6996,3.7016,3.7024,3.7074,3.6993,3.6993,3.6985,3.6982,3.7018,3.7022,3.7035,3.7111,3.7113,3.7035,3.7038,3.7039,3.704,0,0,0,0,0,0,0,3.6943,3.6951,3.7035,3.7,3.6998,3.6981,3.6984,3.7033,3.7023,3.6993,3.6988,3.6993,3.7017,3.7031,3.7035,3.7113,3.7035,3.7039,3.7041,3.7043,3.7262,3.7265,0,0,0,0,0,0,3.6943,3.6949,3.7034,3.7036,3.6962,3.6986,3.6989,3.7013,3.7022,3.7021,3.6996,3.699,3.7025,3.703,3.7036,3.7138,3.7039,3.7043,3.7046,3.7259,3.7263,3.7266,0,0,0,0,0,0,3.6941,3.6952,3.7033,3.6991,3.7,3.6991,3.7018,3.7015,3.7029,3.7024,3.7022,3.7012,3.7023,3.703,3.7092,3.7138,3.7045,3.7049,3.7255,3.726,3.7265,3.7344,0,0,0,0,0,0,3.6938,3.6951,3.6985,3.6993,3.7003,3.709,3.7021,3.7018,3.7037,3.7029,3.7039,3.7038,3.7021,3.7086,3.7096,3.7142,3.7052,3.725,3.7257,3.7263,3.7337,3.7351,3.7363,0,0,0,0,0,3.6934,3.7006,3.6987,3.6998,3.7045,3.7093,3.7098,3.7078,3.7041,3.7074,3.7071,3.7037,3.7132,3.7093,3.7104,3.7152,3.7247,3.7255,3.7262,3.7331,3.7349,3.7363,0,0,0,0,0,0,3.7004,3.7007,3.6986,3.7063,3.7078,3.7082,3.7123,3.7097,3.7123,3.7115,3.7089,3.7091,3.7158,3.7161,3.7118,3.7237,3.7183,3.7193,3.7232,3.7248,3.7261,3.7258,3.7055,0,0,0,0,0,3.7029,3.7068,3.7068,3.7135,3.7144,3.7133,3.7153,3.7136,3.715,3.7156,3.7157,3.7172,3.7205,3.7227,3.7257,3.7338,3.7338,3.7376,3.7389,3.74,3.7408,3.745,3.7466,3.7291,3.7291,3.7291,0,0,3.708,3.7086,3.7112,3.715,3.7159,3.7199,3.7139,3.7183,3.7212,3.7163,3.7221,3.7223,3.7237,3.7308,3.734,3.7313,3.7457,3.7409,3.7418,3.7421,3.7459,3.7476,3.7491,3.7296,3.7295,3.7294,0,0,3.7192,3.7202,3.7258,3.727,3.7285,3.7277,3.7291,3.7299,3.7298,3.7356,3.7319,3.7353,3.7411,3.7422,3.7435,3.7552,3.7521,3.7562,3.7629,3.767,3.7684,3.7696,3.7736,3.7751,3.7571,3.7571,3.7571,0,3.7253,3.7312,3.7291,3.7338,3.7355,3.7313,3.7369,3.7381,3.7406,3.7418,3.7388,3.7458,3.7465,3.7538,3.7566,3.7579,3.7593,3.756,3.7684,3.7696,3.7707,3.7745,3.776,3.7576,3.7575,3.7575,3.7575,0,3.7385,3.7427,3.7471,3.7496,3.7518,3.757,3.7555,3.758,3.7562,3.7557,3.7616,3.7623,3.7652,3.7669,3.7651,3.7739,3.7722,3.7689,3.7634,3.7729,3.7764,3.7778,3.7583,3.7581,3.758,3.7578,0,0,3.7543,3.7555,3.7571,3.7582,3.7596,3.7627,3.7677,3.7706,3.7727,3.7746,3.7786,3.7835,3.7804,3.7819,3.7803,3.7839,3.7929,3.7801,3.78,3.7823,3.8024,3.8048,3.8065,3.7909,3.7912,3.7914,3.8022,0,3.7653,3.7738,3.772,3.7804,3.7841,3.7801,3.7844,3.7857,3.7853,3.7884,3.7879,3.7914,3.7872,3.788,3.7914,3.7911,3.7969,3.7903,3.7945,3.7946,3.7941,3.8084,3.811,3.8211,3.8036,3.8038,3.804,0,3.7793,3.7817,3.7904,3.7911,3.7926,3.7965,3.799,3.8021,3.8034,3.8029,3.8046,3.8022,3.8069,3.8016,3.808,3.8036,3.8052,3.8053,3.8056,3.8058,3.7998,3.8088,3.8244,3.8258,3.8062,3.806,3.8059,0,3.7897,3.7951,3.801,3.802,3.803,3.8058,3.8064,3.8074,3.8093,3.8115,3.8126,3.8154,3.8169,3.819,3.8173,3.8136,3.824,3.8185,3.8236,3.8236,3.8259,3.8257,3.8417,3.8272,3.8272,3.8271,3.8271,0,3.8021,3.8076,3.8056,3.8093,3.8152,3.813,3.819,3.819,3.82,3.8234,3.8202,3.8235,3.8212,3.8243,3.8231,3.8285,3.8293,3.8289,3.8284,3.8291,3.8291,3.83,3.8292,3.8275,3.8274,3.8274,3.8273,0,3.8147,3.8136,3.8197,3.8202,3.8205,3.8248,3.8252,3.8285,3.8279,3.8323,3.8332,3.8323,3.8357,3.8343,3.838,3.8372,3.8441,3.8428,3.8437,3.8433,3.8484,3.8479,3.8654,3.8675,3.8518,3.8519,3.852,0,3.8226,3.8267,3.8276,3.8297,3.8305,3.834,3.8359,3.8339,3.836,3.8378,3.8408,3.844,3.8465,3.8522,3.8517,3.8545,3.8532,3.8591,3.8536,3.854,3.8531,3.8528,3.8531,3.8602,3.8604,3.8605,3.8607,0,3.8367,3.836,3.8389,3.8416,3.844,3.846,3.8477,3.8496,3.8477,3.8502,3.8538,3.8557,3.8594,3.8626,3.865,3.8654,3.8627,3.8624,3.8637,3.8643,3.8646,3.8644,3.8466,3.862,3.8619,3.8618,3.8617,3.8616,3.8471,3.8505,3.8517,3.855,3.8561,3.8578,3.8609,3.8607,3.8636,3.8665,3.8651,3.8692,3.8703,3.8733,3.8741,3.8772,3.8749,3.8768,3.8772,3.8777,3.8783,3.8642,3.8777,3.8776,3.8776,3.8775,3.8775,0,3.8609,3.8615,3.8646,3.8671,3.8697,3.867,3.8687,3.871,3.8746,3.8759,3.8784,3.8824,3.8854,3.8853,3.8881,3.8905,3.8893,3.8913,3.891,3.8912,3.8803,3.8788,3.8922,3.8922,3.8922,3.8922,3.8922,3.8922,3.8684,3.874,3.8734,3.8795,3.8799,3.8839,3.8851,3.8866,3.8877,3.8923,3.8948,3.8947,3.8954,3.8982,3.9008,3.9007,3.9018,3.9042,3.9036,3.8934,3.8919,3.8905,3.8892,3.9045,3.9045,3.9142,3.9143,3.9143]}]]